Year,Month,Day,Hour,Minute,Value (Times are PST for temperature in C)
2020,10,01,00,00,14.00
2020,10,01,00,01,14.00
2020,10,01,00,02,14.00
2020,10,01,00,03,14.00
2020,10,01,00,04,14.00
2020,10,01,00,05,14.00
2020,10,01,00,06,14.00
2020,10,01,00,07,14.00
2020,10,01,00,08,14.00
2020,10,01,00,09,14.00
2020,10,01,00,10,14.00
2020,10,01,00,11,14.00
2020,10,01,00,12,14.00
2020,10,01,00,13,14.00
2020,10,01,00,14,14.00
2020,10,01,00,15,14.00
2020,10,01,00,16,14.00
2020,10,01,00,17,14.00
2020,10,01,00,18,14.00
2020,10,01,00,19,14.00
2020,10,01,00,20,14.00
2020,10,01,00,21,14.00
2020,10,01,00,22,14.00
2020,10,01,00,23,14.00
2020,10,01,00,24,14.00
2020,10,01,00,25,14.00
2020,10,01,00,26,14.00
2020,10,01,00,27,14.00
2020,10,01,00,28,14.00
2020,10,01,00,29,13.90
2020,10,01,00,30,13.90
2020,10,01,00,31,13.90
2020,10,01,00,32,13.90
2020,10,01,00,33,13.90
2020,10,01,00,34,13.90
2020,10,01,00,35,13.90
2020,10,01,00,36,13.90
2020,10,01,00,37,13.90
2020,10,01,00,38,13.90
2020,10,01,00,39,13.90
2020,10,01,00,40,13.90
2020,10,01,00,41,14.00
2020,10,01,00,42,14.00
2020,10,01,00,43,14.00
2020,10,01,00,44,14.00
2020,10,01,00,45,14.00
2020,10,01,00,46,14.00
2020,10,01,00,47,14.00
2020,10,01,00,48,14.00
2020,10,01,00,49,14.00
2020,10,01,00,50,14.00
2020,10,01,00,51,14.00
2020,10,01,00,52,14.00
2020,10,01,00,53,14.00
2020,10,01,00,54,14.00
2020,10,01,00,55,14.00
2020,10,01,00,56,14.00
2020,10,01,00,57,14.00
2020,10,01,00,58,14.00
2020,10,01,00,59,14.00
2020,10,01,01,00,14.00
2020,10,01,01,01,14.00
2020,10,01,01,02,14.00
2020,10,01,01,03,13.90
2020,10,01,01,04,14.00
2020,10,01,01,05,14.00
2020,10,01,01,06,14.00
2020,10,01,01,07,14.00
2020,10,01,01,08,13.90
2020,10,01,01,09,13.90
2020,10,01,01,10,13.90
2020,10,01,01,11,13.90
2020,10,01,01,12,13.90
2020,10,01,01,13,13.90
2020,10,01,01,14,13.90
2020,10,01,01,15,13.90
2020,10,01,01,16,13.90
2020,10,01,01,17,13.90
2020,10,01,01,18,13.90
2020,10,01,01,19,13.90
2020,10,01,01,20,13.90
2020,10,01,01,21,13.90
2020,10,01,01,22,13.90
2020,10,01,01,23,14.00
2020,10,01,01,24,14.00
2020,10,01,01,25,14.00
2020,10,01,01,26,14.10
2020,10,01,01,27,14.20
2020,10,01,01,28,14.20
2020,10,01,01,29,14.20
2020,10,01,01,30,14.20
2020,10,01,01,31,14.20
2020,10,01,01,32,14.20
2020,10,01,01,33,14.20
2020,10,01,01,34,14.20
2020,10,01,01,35,14.20
2020,10,01,01,36,14.20
2020,10,01,01,37,14.20
2020,10,01,01,38,14.20
2020,10,01,01,39,14.20
2020,10,01,01,40,14.20
2020,10,01,01,41,14.20
2020,10,01,01,42,14.20
2020,10,01,01,43,14.20
2020,10,01,01,44,14.20
2020,10,01,01,45,14.20
2020,10,01,01,46,14.20
2020,10,01,01,47,14.20
2020,10,01,01,48,14.20
2020,10,01,01,49,14.30
2020,10,01,01,50,14.30
2020,10,01,01,51,14.30
2020,10,01,01,52,14.40
2020,10,01,01,53,14.40
2020,10,01,01,54,14.40
2020,10,01,01,55,14.40
2020,10,01,01,56,14.40
2020,10,01,01,57,14.40
2020,10,01,01,58,14.40
2020,10,01,01,59,14.40
2020,10,01,02,00,14.40
2020,10,01,02,01,14.40
2020,10,01,02,02,14.50
2020,10,01,02,03,14.50
2020,10,01,02,04,14.50
2020,10,01,02,05,14.50
2020,10,01,02,06,14.50
2020,10,01,02,07,14.50
2020,10,01,02,08,14.50
2020,10,01,02,09,14.50
2020,10,01,02,10,14.50
2020,10,01,02,11,14.60
2020,10,01,02,12,14.60
2020,10,01,02,13,14.60
2020,10,01,02,14,14.60
2020,10,01,02,15,14.60
2020,10,01,02,16,14.60
2020,10,01,02,17,14.60
2020,10,01,02,18,14.60
2020,10,01,02,19,14.70
2020,10,01,02,20,14.70
2020,10,01,02,21,14.70
2020,10,01,02,22,14.70
2020,10,01,02,23,14.70
2020,10,01,02,24,14.70
2020,10,01,02,25,14.80
2020,10,01,02,26,14.80
2020,10,01,02,27,14.80
2020,10,01,02,28,14.80
2020,10,01,02,29,14.80
2020,10,01,02,30,14.80
2020,10,01,02,31,14.80
2020,10,01,02,32,14.80
2020,10,01,02,33,14.80
2020,10,01,02,34,14.80
2020,10,01,02,35,14.80
2020,10,01,02,36,14.80
2020,10,01,02,37,14.80
2020,10,01,02,38,14.80
2020,10,01,02,39,14.80
2020,10,01,02,40,14.80
2020,10,01,02,41,14.80
2020,10,01,02,42,14.80
2020,10,01,02,43,14.80
2020,10,01,02,44,14.80
2020,10,01,02,45,14.80
2020,10,01,02,46,14.80
2020,10,01,02,47,14.80
2020,10,01,02,48,14.80
2020,10,01,02,49,14.80
2020,10,01,02,50,14.80
2020,10,01,02,51,14.80
2020,10,01,02,52,14.80
2020,10,01,02,53,14.80
2020,10,01,02,54,14.80
2020,10,01,02,55,14.80
2020,10,01,02,56,14.80
2020,10,01,02,57,14.80
2020,10,01,02,58,14.80
2020,10,01,02,59,14.80
2020,10,01,03,00,14.80
2020,10,01,03,01,14.80
2020,10,01,03,02,14.80
2020,10,01,03,03,14.80
2020,10,01,03,04,14.80
2020,10,01,03,05,14.80
2020,10,01,03,06,14.80
2020,10,01,03,07,14.70
2020,10,01,03,08,14.70
2020,10,01,03,09,14.70
2020,10,01,03,10,14.70
2020,10,01,03,11,14.70
2020,10,01,03,12,14.60
2020,10,01,03,13,14.60
2020,10,01,03,14,14.60
2020,10,01,03,15,14.60
2020,10,01,03,16,14.60
2020,10,01,03,17,14.50
2020,10,01,03,18,14.50
2020,10,01,03,19,14.50
2020,10,01,03,20,14.40
2020,10,01,03,21,14.40
2020,10,01,03,22,14.40
2020,10,01,03,23,14.40
2020,10,01,03,24,14.30
2020,10,01,03,25,14.30
2020,10,01,03,26,14.30
2020,10,01,03,27,14.20
2020,10,01,03,28,14.20
2020,10,01,03,29,14.20
2020,10,01,03,30,14.20
2020,10,01,03,31,14.20
2020,10,01,03,32,14.20
2020,10,01,03,33,14.20
2020,10,01,03,34,14.20
2020,10,01,03,35,14.20
2020,10,01,03,36,14.20
2020,10,01,03,37,14.20
2020,10,01,03,38,14.20
2020,10,01,03,39,14.20
2020,10,01,03,40,14.20
2020,10,01,03,41,14.20
2020,10,01,03,42,14.20
2020,10,01,03,43,14.20
2020,10,01,03,44,14.20
2020,10,01,03,45,14.20
2020,10,01,03,46,14.20
2020,10,01,03,47,14.20
2020,10,01,03,48,14.10
2020,10,01,03,49,14.10
2020,10,01,03,50,14.10
2020,10,01,03,51,14.10
2020,10,01,03,52,14.10
2020,10,01,03,53,14.10
2020,10,01,03,54,14.10
2020,10,01,03,55,14.00
2020,10,01,03,56,14.00
2020,10,01,03,57,14.00
2020,10,01,03,58,14.00
2020,10,01,03,59,14.00
2020,10,01,04,00,14.00
2020,10,01,04,01,14.00
2020,10,01,04,02,14.00
2020,10,01,04,03,14.00
2020,10,01,04,04,14.00
2020,10,01,04,05,14.10
2020,10,01,04,06,14.10
2020,10,01,04,07,14.00
2020,10,01,04,08,14.00
2020,10,01,04,09,14.00
2020,10,01,04,10,14.00
2020,10,01,04,11,14.00
2020,10,01,04,12,14.00
2020,10,01,04,13,14.00
2020,10,01,04,14,14.00
2020,10,01,04,15,14.00
2020,10,01,04,16,14.00
2020,10,01,04,17,14.00
2020,10,01,04,18,14.10
2020,10,01,04,19,14.10
2020,10,01,04,20,14.10
2020,10,01,04,21,14.10
2020,10,01,04,22,14.10
2020,10,01,04,23,14.10
2020,10,01,04,24,14.10
2020,10,01,04,25,14.10
2020,10,01,04,26,14.10
2020,10,01,04,27,14.10
2020,10,01,04,28,14.00
2020,10,01,04,29,14.00
2020,10,01,04,30,14.00
2020,10,01,04,31,14.00
2020,10,01,04,32,14.00
2020,10,01,04,33,14.00
2020,10,01,04,34,13.90
2020,10,01,04,35,13.90
2020,10,01,04,36,13.90
2020,10,01,04,37,13.90
2020,10,01,04,38,13.90
2020,10,01,04,39,13.90
2020,10,01,04,40,13.90
2020,10,01,04,41,14.00
2020,10,01,04,42,14.00
2020,10,01,04,43,14.00
2020,10,01,04,44,14.00
2020,10,01,04,45,14.00
2020,10,01,04,46,14.10
2020,10,01,04,47,14.10
2020,10,01,04,48,14.10
2020,10,01,04,49,14.10
2020,10,01,04,50,14.10
2020,10,01,04,51,14.10
2020,10,01,04,52,14.10
2020,10,01,04,53,14.10
2020,10,01,04,54,14.10
2020,10,01,04,55,14.00
2020,10,01,04,56,14.00
2020,10,01,04,57,14.00
2020,10,01,04,58,13.90
2020,10,01,04,59,13.90
2020,10,01,05,00,13.90
2020,10,01,05,01,13.90
2020,10,01,05,02,13.80
2020,10,01,05,03,13.80
2020,10,01,05,04,13.80
2020,10,01,05,05,13.80
2020,10,01,05,06,13.70
2020,10,01,05,07,13.70
2020,10,01,05,08,13.70
2020,10,01,05,09,13.70
2020,10,01,05,10,13.70
2020,10,01,05,11,13.70
2020,10,01,05,12,13.70
2020,10,01,05,13,13.70
2020,10,01,05,14,13.70
2020,10,01,05,15,13.70
2020,10,01,05,16,13.70
2020,10,01,05,17,13.70
2020,10,01,05,18,13.70
2020,10,01,05,19,13.70
2020,10,01,05,20,13.70
2020,10,01,05,21,13.60
2020,10,01,05,22,13.70
2020,10,01,05,23,13.70
2020,10,01,05,24,13.70
2020,10,01,05,25,13.70
2020,10,01,05,26,13.70
2020,10,01,05,27,13.70
2020,10,01,05,28,13.70
2020,10,01,05,29,13.70
2020,10,01,05,30,13.70
2020,10,01,05,31,13.70
2020,10,01,05,32,13.70
2020,10,01,05,33,13.70
2020,10,01,05,34,13.70
2020,10,01,05,35,13.70
2020,10,01,05,36,13.80
2020,10,01,05,37,13.80
2020,10,01,05,38,13.80
2020,10,01,05,39,13.80
2020,10,01,05,40,13.80
2020,10,01,05,41,13.80
2020,10,01,05,42,13.80
2020,10,01,05,43,13.80
2020,10,01,05,44,13.80
2020,10,01,05,45,13.80
2020,10,01,05,46,13.80
2020,10,01,05,47,13.80
2020,10,01,05,48,13.80
2020,10,01,05,49,13.80
2020,10,01,05,50,13.80
2020,10,01,05,51,13.70
2020,10,01,05,52,13.70
2020,10,01,05,53,13.70
2020,10,01,05,54,13.70
2020,10,01,05,55,13.70
2020,10,01,05,56,13.70
2020,10,01,05,57,13.60
2020,10,01,05,58,13.60
2020,10,01,05,59,13.50
2020,10,01,06,00,13.50
2020,10,01,06,01,13.50
2020,10,01,06,02,13.40
2020,10,01,06,03,13.40
2020,10,01,06,04,13.30
2020,10,01,06,05,13.30
2020,10,01,06,06,13.30
2020,10,01,06,07,13.30
2020,10,01,06,08,13.30
2020,10,01,06,09,13.30
2020,10,01,06,10,13.20
2020,10,01,06,11,13.20
2020,10,01,06,12,13.20
2020,10,01,06,13,13.20
2020,10,01,06,14,13.10
2020,10,01,06,15,13.10
2020,10,01,06,16,13.10
2020,10,01,06,17,13.00
2020,10,01,06,18,13.00
2020,10,01,06,19,13.00
2020,10,01,06,20,13.00
2020,10,01,06,21,12.90
2020,10,01,06,22,12.90
2020,10,01,06,23,12.90
2020,10,01,06,24,12.90
2020,10,01,06,25,12.80
2020,10,01,06,26,12.80
2020,10,01,06,27,12.80
2020,10,01,06,28,12.80
2020,10,01,06,29,12.80
2020,10,01,06,30,12.80
2020,10,01,06,31,12.80
2020,10,01,06,32,12.80
2020,10,01,06,33,12.80
2020,10,01,06,34,12.70
2020,10,01,06,35,12.70
2020,10,01,06,36,12.70
2020,10,01,06,37,12.70
2020,10,01,06,38,12.70
2020,10,01,06,39,12.70
2020,10,01,06,40,12.60
2020,10,01,06,41,12.60
2020,10,01,06,42,12.60
2020,10,01,06,43,12.60
2020,10,01,06,44,12.60
2020,10,01,06,45,12.60
2020,10,01,06,46,12.60
2020,10,01,06,47,12.60
2020,10,01,06,48,12.60
2020,10,01,06,49,12.60
2020,10,01,06,50,12.60
2020,10,01,06,51,12.50
2020,10,01,06,52,12.50
2020,10,01,06,53,12.50
2020,10,01,06,54,12.50
2020,10,01,06,55,12.50
2020,10,01,06,56,12.60
2020,10,01,06,57,12.60
2020,10,01,06,58,12.60
2020,10,01,06,59,12.50
2020,10,01,07,00,12.50
2020,10,01,07,01,12.50
2020,10,01,07,02,12.50
2020,10,01,07,03,12.50
2020,10,01,07,04,12.50
2020,10,01,07,05,12.40
2020,10,01,07,06,12.40
2020,10,01,07,07,12.40
2020,10,01,07,08,12.40
2020,10,01,07,09,12.30
2020,10,01,07,10,12.30
2020,10,01,07,11,12.30
2020,10,01,07,12,12.30
2020,10,01,07,13,12.30
2020,10,01,07,14,12.30
2020,10,01,07,15,12.30
2020,10,01,07,16,12.30
2020,10,01,07,17,12.30
2020,10,01,07,18,12.30
2020,10,01,07,19,12.30
2020,10,01,07,20,12.30
2020,10,01,07,21,12.30
2020,10,01,07,22,12.30
2020,10,01,07,23,12.20
2020,10,01,07,24,12.20
2020,10,01,07,25,12.20
2020,10,01,07,26,12.20
2020,10,01,07,27,12.10
2020,10,01,07,28,12.10
2020,10,01,07,29,12.10
2020,10,01,07,30,12.10
2020,10,01,07,31,12.00
2020,10,01,07,32,12.00
2020,10,01,07,33,12.00
2020,10,01,07,34,12.00
2020,10,01,07,35,12.00
2020,10,01,07,36,12.00
2020,10,01,07,37,12.00
2020,10,01,07,38,11.90
2020,10,01,07,39,11.90
2020,10,01,07,40,11.90
2020,10,01,07,41,11.90
2020,10,01,07,42,11.90
2020,10,01,07,43,11.90
2020,10,01,07,44,11.90
2020,10,01,07,45,11.90
2020,10,01,07,46,11.90
2020,10,01,07,47,11.90
2020,10,01,07,48,11.90
2020,10,01,07,49,11.90
2020,10,01,07,50,11.90
2020,10,01,07,51,11.90
2020,10,01,07,52,11.90
2020,10,01,07,53,11.90
2020,10,01,07,54,11.90
2020,10,01,07,55,11.90
2020,10,01,07,56,11.90
2020,10,01,07,57,11.90
2020,10,01,07,58,11.90
2020,10,01,07,59,11.90
2020,10,01,08,00,11.90
2020,10,01,08,01,11.90
2020,10,01,08,02,11.90
2020,10,01,08,03,11.90
2020,10,01,08,04,11.90
2020,10,01,08,05,11.90
2020,10,01,08,06,11.90
2020,10,01,08,07,11.90
2020,10,01,08,08,11.90
2020,10,01,08,09,11.90
2020,10,01,08,10,11.90
2020,10,01,08,11,11.90
2020,10,01,08,12,11.90
2020,10,01,08,13,11.90
2020,10,01,08,14,11.90
2020,10,01,08,15,11.90
2020,10,01,08,16,11.90
2020,10,01,08,17,11.90
2020,10,01,08,18,11.90
2020,10,01,08,19,11.90
2020,10,01,08,20,11.90
2020,10,01,08,21,11.90
2020,10,01,08,22,12.00
2020,10,01,08,23,12.00
2020,10,01,08,24,12.00
2020,10,01,08,25,12.00
2020,10,01,08,26,12.00
2020,10,01,08,27,12.00
2020,10,01,08,28,12.00
2020,10,01,08,29,12.00
2020,10,01,08,30,12.10
2020,10,01,08,31,12.10
2020,10,01,08,32,12.10
2020,10,01,08,33,12.10
2020,10,01,08,34,12.10
2020,10,01,08,35,12.20
2020,10,01,08,36,12.20
2020,10,01,08,37,12.20
2020,10,01,08,38,12.20
2020,10,01,08,39,12.30
2020,10,01,08,40,12.30
2020,10,01,08,41,12.30
2020,10,01,08,42,12.30
2020,10,01,08,43,12.30
2020,10,01,08,44,12.40
2020,10,01,08,45,12.40
2020,10,01,08,46,12.50
2020,10,01,08,47,12.50
2020,10,01,08,48,12.50
2020,10,01,08,49,12.60
2020,10,01,08,50,12.60
2020,10,01,08,51,12.70
2020,10,01,08,52,12.70
2020,10,01,08,53,12.80
2020,10,01,08,54,12.80
2020,10,01,08,55,12.90
2020,10,01,08,56,12.90
2020,10,01,08,57,13.00
2020,10,01,08,58,13.10
2020,10,01,08,59,13.20
2020,10,01,09,00,13.30
2020,10,01,09,01,13.40
2020,10,01,09,02,13.50
2020,10,01,09,03,13.60
2020,10,01,09,04,13.70
2020,10,01,09,05,13.70
2020,10,01,09,06,13.80
2020,10,01,09,07,13.90
2020,10,01,09,08,13.90
2020,10,01,09,09,14.00
2020,10,01,09,10,14.00
2020,10,01,09,11,14.00
2020,10,01,09,12,14.10
2020,10,01,09,13,14.10
2020,10,01,09,14,14.10
2020,10,01,09,15,14.20
2020,10,01,09,16,14.20
2020,10,01,09,17,14.20
2020,10,01,09,18,14.20
2020,10,01,09,19,14.20
2020,10,01,09,20,14.20
2020,10,01,09,21,14.20
2020,10,01,09,22,14.20
2020,10,01,09,23,14.30
2020,10,01,09,24,14.40
2020,10,01,09,25,14.40
2020,10,01,09,26,14.50
2020,10,01,09,27,14.50
2020,10,01,09,28,14.60
2020,10,01,09,29,14.60
2020,10,01,09,30,14.70
2020,10,01,09,31,14.80
2020,10,01,09,32,14.90
2020,10,01,09,33,15.00
2020,10,01,09,34,15.00
2020,10,01,09,35,15.10
2020,10,01,09,36,15.20
2020,10,01,09,37,15.20
2020,10,01,09,38,15.30
2020,10,01,09,39,15.30
2020,10,01,09,40,15.30
2020,10,01,09,41,15.40
2020,10,01,09,42,15.40
2020,10,01,09,43,15.40
2020,10,01,09,44,15.50
2020,10,01,09,45,15.50
2020,10,01,09,46,15.50
2020,10,01,09,47,15.50
2020,10,01,09,48,15.50
2020,10,01,09,49,15.50
2020,10,01,09,50,15.50
2020,10,01,09,51,15.50
2020,10,01,09,52,15.50
2020,10,01,09,53,15.50
2020,10,01,09,54,15.50
2020,10,01,09,55,15.50
2020,10,01,09,56,15.50
2020,10,01,09,57,15.50
2020,10,01,09,58,15.60
2020,10,01,09,59,15.60
2020,10,01,10,00,15.60
2020,10,01,10,01,15.70
2020,10,01,10,02,15.70
2020,10,01,10,03,15.70
2020,10,01,10,04,15.80
2020,10,01,10,05,15.80
2020,10,01,10,06,15.90
2020,10,01,10,07,15.90
2020,10,01,10,08,16.00
2020,10,01,10,09,16.10
2020,10,01,10,10,16.10
2020,10,01,10,11,16.10
2020,10,01,10,12,16.20
2020,10,01,10,13,16.20
2020,10,01,10,14,16.30
2020,10,01,10,15,16.30
2020,10,01,10,16,16.30
2020,10,01,10,17,16.40
2020,10,01,10,18,16.40
2020,10,01,10,19,16.40
2020,10,01,10,20,16.50
2020,10,01,10,21,16.60
2020,10,01,10,22,16.60
2020,10,01,10,23,16.60
2020,10,01,10,24,16.60
2020,10,01,10,25,16.70
2020,10,01,10,26,16.80
2020,10,01,10,27,16.80
2020,10,01,10,28,16.90
2020,10,01,10,29,17.00
2020,10,01,10,30,17.00
2020,10,01,10,31,17.10
2020,10,01,10,32,17.20
2020,10,01,10,33,17.30
2020,10,01,10,34,17.30
2020,10,01,10,35,17.30
2020,10,01,10,36,17.30
2020,10,01,10,37,17.30
2020,10,01,10,38,17.40
2020,10,01,10,39,17.50
2020,10,01,10,40,17.50
2020,10,01,10,41,17.60
2020,10,01,10,42,17.60
2020,10,01,10,43,17.60
2020,10,01,10,44,17.70
2020,10,01,10,45,17.70
2020,10,01,10,46,17.80
2020,10,01,10,47,17.90
2020,10,01,10,48,17.90
2020,10,01,10,49,17.90
2020,10,01,10,50,17.90
2020,10,01,10,51,17.90
2020,10,01,10,52,18.00
2020,10,01,10,53,18.10
2020,10,01,10,54,18.20
2020,10,01,10,55,18.20
2020,10,01,10,56,18.30
2020,10,01,10,57,18.40
2020,10,01,10,58,18.50
2020,10,01,10,59,18.60
2020,10,01,11,00,18.60
2020,10,01,11,01,18.70
2020,10,01,11,02,18.70
2020,10,01,11,03,18.80
2020,10,01,11,04,18.80
2020,10,01,11,05,18.80
2020,10,01,11,06,18.80
2020,10,01,11,07,18.80
2020,10,01,11,08,18.90
2020,10,01,11,09,18.90
2020,10,01,11,10,18.90
2020,10,01,11,11,18.90
2020,10,01,11,12,18.90
2020,10,01,11,13,19.00
2020,10,01,11,14,19.10
2020,10,01,11,15,19.10
2020,10,01,11,16,19.10
2020,10,01,11,17,19.10
2020,10,01,11,18,19.10
2020,10,01,11,19,19.00
2020,10,01,11,20,18.90
2020,10,01,11,21,19.00
2020,10,01,11,22,19.10
2020,10,01,11,23,19.10
2020,10,01,11,24,19.10
2020,10,01,11,25,19.10
2020,10,01,11,26,19.10
2020,10,01,11,27,19.10
2020,10,01,11,28,19.10
2020,10,01,11,29,19.10
2020,10,01,11,30,19.10
2020,10,01,11,31,19.10
2020,10,01,11,32,19.10
2020,10,01,11,33,19.10
2020,10,01,11,34,19.10
2020,10,01,11,35,19.10
2020,10,01,11,36,19.20
2020,10,01,11,37,19.20
2020,10,01,11,38,19.20
2020,10,01,11,39,19.20
2020,10,01,11,40,19.20
2020,10,01,11,41,19.20
2020,10,01,11,42,19.20
2020,10,01,11,43,19.30
2020,10,01,11,44,19.30
2020,10,01,11,45,19.30
2020,10,01,11,46,19.40
2020,10,01,11,47,19.40
2020,10,01,11,48,19.50
2020,10,01,11,49,19.50
2020,10,01,11,50,19.50
2020,10,01,11,51,19.60
2020,10,01,11,52,19.60
2020,10,01,11,53,19.60
2020,10,01,11,54,19.70
2020,10,01,11,55,19.70
2020,10,01,11,56,19.80
2020,10,01,11,57,19.90
2020,10,01,11,58,19.90
2020,10,01,11,59,19.90
2020,10,01,12,00,19.90
2020,10,01,12,01,20.00
2020,10,01,12,02,20.10
2020,10,01,12,03,20.10
2020,10,01,12,04,20.10
2020,10,01,12,05,20.10
2020,10,01,12,06,20.20
2020,10,01,12,07,20.20
2020,10,01,12,08,20.20
2020,10,01,12,09,20.20
2020,10,01,12,10,20.20
2020,10,01,12,11,20.20
2020,10,01,12,12,20.30
2020,10,01,12,13,20.30
2020,10,01,12,14,20.30
2020,10,01,12,15,20.30
2020,10,01,12,16,20.40
2020,10,01,12,17,20.40
2020,10,01,12,18,20.30
2020,10,01,12,19,20.40
2020,10,01,12,20,20.40
2020,10,01,12,21,20.40
2020,10,01,12,22,20.40
2020,10,01,12,23,20.40
2020,10,01,12,24,20.50
2020,10,01,12,25,20.50
2020,10,01,12,26,20.60
2020,10,01,12,27,20.50
2020,10,01,12,28,20.60
2020,10,01,12,29,20.60
2020,10,01,12,30,20.50
2020,10,01,12,31,20.50
2020,10,01,12,32,20.50
2020,10,01,12,33,20.50
2020,10,01,12,34,20.60
2020,10,01,12,35,20.60
2020,10,01,12,36,20.60
2020,10,01,12,37,20.70
2020,10,01,12,38,20.70
2020,10,01,12,39,20.70
2020,10,01,12,40,20.70
2020,10,01,12,41,20.60
2020,10,01,12,42,20.60
2020,10,01,12,43,20.60
2020,10,01,12,44,20.60
2020,10,01,12,45,20.50
2020,10,01,12,46,20.50
2020,10,01,12,47,20.50
2020,10,01,12,48,20.60
2020,10,01,12,49,20.60
2020,10,01,12,50,20.60
2020,10,01,12,51,20.60
2020,10,01,12,52,20.60
2020,10,01,12,53,20.60
2020,10,01,12,54,20.60
2020,10,01,12,55,20.60
2020,10,01,12,56,20.70
2020,10,01,12,57,20.70
2020,10,01,12,58,20.70
2020,10,01,12,59,20.70
2020,10,01,13,00,20.70
2020,10,01,13,01,20.70
2020,10,01,13,02,20.70
2020,10,01,13,03,20.70
2020,10,01,13,04,20.70
2020,10,01,13,05,20.70
2020,10,01,13,06,20.80
2020,10,01,13,07,20.70
2020,10,01,13,08,20.70
2020,10,01,13,09,20.80
2020,10,01,13,10,20.80
2020,10,01,13,11,20.70
2020,10,01,13,12,20.70
2020,10,01,13,13,20.70
2020,10,01,13,14,20.70
2020,10,01,13,15,20.70
2020,10,01,13,16,20.70
2020,10,01,13,17,20.80
2020,10,01,13,18,20.80
2020,10,01,13,19,20.80
2020,10,01,13,20,20.80
2020,10,01,13,21,20.80
2020,10,01,13,22,20.80
2020,10,01,13,23,20.80
2020,10,01,13,24,20.80
2020,10,01,13,25,20.80
2020,10,01,13,26,20.80
2020,10,01,13,27,20.80
2020,10,01,13,28,20.80
2020,10,01,13,29,20.80
2020,10,01,13,30,20.80
2020,10,01,13,31,20.80
2020,10,01,13,32,20.90
2020,10,01,13,33,21.00
2020,10,01,13,34,21.00
2020,10,01,13,35,21.00
2020,10,01,13,36,21.00
2020,10,01,13,37,21.10
2020,10,01,13,38,21.10
2020,10,01,13,39,21.10
2020,10,01,13,40,21.10
2020,10,01,13,41,21.20
2020,10,01,13,42,21.20
2020,10,01,13,43,21.20
2020,10,01,13,44,21.20
2020,10,01,13,45,21.30
2020,10,01,13,46,21.30
2020,10,01,13,47,21.30
2020,10,01,13,48,21.30
2020,10,01,13,49,21.30
2020,10,01,13,50,21.30
2020,10,01,13,51,21.30
2020,10,01,13,52,21.30
2020,10,01,13,53,21.30
2020,10,01,13,54,21.30
2020,10,01,13,55,21.20
2020,10,01,13,56,21.20
2020,10,01,13,57,21.30
2020,10,01,13,58,21.20
2020,10,01,13,59,21.20
2020,10,01,14,00,21.30
2020,10,01,14,01,21.30
2020,10,01,14,02,21.30
2020,10,01,14,03,21.30
2020,10,01,14,04,21.30
2020,10,01,14,05,21.30
2020,10,01,14,06,21.40
2020,10,01,14,07,21.40
2020,10,01,14,08,21.40
2020,10,01,14,09,21.40
2020,10,01,14,10,21.50
2020,10,01,14,11,21.60
2020,10,01,14,12,21.60
2020,10,01,14,13,21.60
2020,10,01,14,14,21.60
2020,10,01,14,15,21.60
2020,10,01,14,16,21.60
2020,10,01,14,17,21.60
2020,10,01,14,18,21.60
2020,10,01,14,19,21.60
2020,10,01,14,20,21.60
2020,10,01,14,21,21.60
2020,10,01,14,22,21.60
2020,10,01,14,23,21.60
2020,10,01,14,24,21.60
2020,10,01,14,25,21.60
2020,10,01,14,26,21.60
2020,10,01,14,27,21.50
2020,10,01,14,28,21.60
2020,10,01,14,29,21.50
2020,10,01,14,30,21.50
2020,10,01,14,31,21.60
2020,10,01,14,32,21.50
2020,10,01,14,33,21.60
2020,10,01,14,34,21.60
2020,10,01,14,35,21.60
2020,10,01,14,36,21.60
2020,10,01,14,37,21.60
2020,10,01,14,38,21.60
2020,10,01,14,39,21.60
2020,10,01,14,40,21.60
2020,10,01,14,41,21.60
2020,10,01,14,42,21.60
2020,10,01,14,43,21.60
2020,10,01,14,44,21.60
2020,10,01,14,45,21.60
2020,10,01,14,46,21.60
2020,10,01,14,47,21.60
2020,10,01,14,48,21.60
2020,10,01,14,49,21.60
2020,10,01,14,50,21.60
2020,10,01,14,51,21.60
2020,10,01,14,52,21.50
2020,10,01,14,53,21.40
2020,10,01,14,54,21.40
2020,10,01,14,55,21.40
2020,10,01,14,56,21.40
2020,10,01,14,57,21.30
2020,10,01,14,58,21.30
2020,10,01,14,59,21.30
2020,10,01,15,00,21.30
2020,10,01,15,01,21.30
2020,10,01,15,02,21.30
2020,10,01,15,03,21.30
2020,10,01,15,04,21.30
2020,10,01,15,05,21.30
2020,10,01,15,06,21.30
2020,10,01,15,07,21.30
2020,10,01,15,08,21.30
2020,10,01,15,09,21.30
2020,10,01,15,10,21.30
2020,10,01,15,11,21.30
2020,10,01,15,12,21.40
2020,10,01,15,13,21.40
2020,10,01,15,14,21.40
2020,10,01,15,15,21.40
2020,10,01,15,16,21.30
2020,10,01,15,17,21.30
2020,10,01,15,18,21.40
2020,10,01,15,19,21.40
2020,10,01,15,20,21.40
2020,10,01,15,21,21.40
2020,10,01,15,22,21.40
2020,10,01,15,23,21.40
2020,10,01,15,24,21.40
2020,10,01,15,25,21.40
2020,10,01,15,26,21.40
2020,10,01,15,27,21.40
2020,10,01,15,28,21.40
2020,10,01,15,29,21.40
2020,10,01,15,30,21.40
2020,10,01,15,31,21.40
2020,10,01,15,32,21.40
2020,10,01,15,33,21.40
2020,10,01,15,34,21.40
2020,10,01,15,35,21.40
2020,10,01,15,36,21.40
2020,10,01,15,37,21.30
2020,10,01,15,38,21.30
2020,10,01,15,39,21.30
2020,10,01,15,40,21.30
2020,10,01,15,41,21.30
2020,10,01,15,42,21.30
2020,10,01,15,43,21.30
2020,10,01,15,44,21.20
2020,10,01,15,45,21.20
2020,10,01,15,46,21.20
2020,10,01,15,47,21.20
2020,10,01,15,48,21.20
2020,10,01,15,49,21.10
2020,10,01,15,50,21.10
2020,10,01,15,51,21.10
2020,10,01,15,52,21.00
2020,10,01,15,53,21.00
2020,10,01,15,54,21.00
2020,10,01,15,55,20.90
2020,10,01,15,56,20.90
2020,10,01,15,57,20.90
2020,10,01,15,58,20.90
2020,10,01,15,59,20.90
2020,10,01,16,00,20.80
2020,10,01,16,01,20.80
2020,10,01,16,02,20.80
2020,10,01,16,03,20.80
2020,10,01,16,04,20.70
2020,10,01,16,05,20.70
2020,10,01,16,06,20.70
2020,10,01,16,07,20.70
2020,10,01,16,08,20.70
2020,10,01,16,09,20.70
2020,10,01,16,10,20.70
2020,10,01,16,11,20.70
2020,10,01,16,12,20.60
2020,10,01,16,13,20.60
2020,10,01,16,14,20.60
2020,10,01,16,15,20.60
2020,10,01,16,16,20.60
2020,10,01,16,17,20.60
2020,10,01,16,18,20.60
2020,10,01,16,19,20.60
2020,10,01,16,20,20.50
2020,10,01,16,21,20.50
2020,10,01,16,22,20.50
2020,10,01,16,23,20.50
2020,10,01,16,24,20.50
2020,10,01,16,25,20.40
2020,10,01,16,26,20.40
2020,10,01,16,27,20.40
2020,10,01,16,28,20.40
2020,10,01,16,29,20.40
2020,10,01,16,30,20.40
2020,10,01,16,31,20.40
2020,10,01,16,32,20.40
2020,10,01,16,33,20.40
2020,10,01,16,34,20.40
2020,10,01,16,35,20.30
2020,10,01,16,36,20.30
2020,10,01,16,37,20.30
2020,10,01,16,38,20.30
2020,10,01,16,39,20.30
2020,10,01,16,40,20.30
2020,10,01,16,41,20.30
2020,10,01,16,42,20.30
2020,10,01,16,43,20.30
2020,10,01,16,44,20.30
2020,10,01,16,45,20.20
2020,10,01,16,46,20.20
2020,10,01,16,47,20.20
2020,10,01,16,48,20.20
2020,10,01,16,49,20.20
2020,10,01,16,50,20.20
2020,10,01,16,51,20.20
2020,10,01,16,52,20.20
2020,10,01,16,53,20.20
2020,10,01,16,54,20.20
2020,10,01,16,55,20.20
2020,10,01,16,56,20.20
2020,10,01,16,57,20.20
2020,10,01,16,58,20.20
2020,10,01,16,59,20.10
2020,10,01,17,00,20.10
2020,10,01,17,01,20.10
2020,10,01,17,02,20.10
2020,10,01,17,03,20.10
2020,10,01,17,04,20.10
2020,10,01,17,05,20.00
2020,10,01,17,06,19.90
2020,10,01,17,07,19.90
2020,10,01,17,08,19.90
2020,10,01,17,09,19.90
2020,10,01,17,10,19.90
2020,10,01,17,11,19.90
2020,10,01,17,12,19.90
2020,10,01,17,13,19.90
2020,10,01,17,14,19.90
2020,10,01,17,15,19.80
2020,10,01,17,16,19.80
2020,10,01,17,17,19.80
2020,10,01,17,18,19.80
2020,10,01,17,19,19.80